KC4WTI Weather Reports


time (UTC)temp
F
wind
direction
speed
knots
gust
knots
rain 1hr
in
rain 24hr
in
rain mn
in
humidity
%
barometer
mb
20260510153435 82 267 1.7 3.5 0.00 0.00 0.00 67 1016.1
20260510152934 82 261 1.7 3.5 0.00 0.00 0.00 64 1015.8
20260510152436 81 250 1.7 5.2 0.00 0.00 0.00 68 1016.0
20260510151933 81 268 1.7 5.2 0.00 0.00 0.00 68 1016.0
20260510151706 81 248 1.7 5.2 0.00 0.00 0.00 64 1015.8
20260510150931 82 261 1.7 2.6 0.00 0.00 0.00 67 1015.8
20260510150431 81 261 0.9 2.6 0.00 0.00 0.00 66 1015.8
20260510145930 80 227 1.7 3.5 0.00 0.00 0.00 69 1015.8
20260510145431 79 5 1.7 3.5 0.00 0.00 0.00 70 1016.0
20260510144931 79 255 1.7 3.5 0.00 0.00 0.00 69 1015.8
20260510144657 79 274 0.9 3.5 0.00 0.00 0.00 72 1016.0
20260510143931 78 238 1.7 4.3 0.00 0.00 0.00 74 1016.1
20260510143426 77 285 2.6 7.0 0.00 0.00 0.00 74 1016.1
20260510142927 77 286 2.6 7.0 0.00 0.00 0.00 72 1016.1
20260510142424 77 5 2.6 6.1 0.00 0.00 0.00 75 1016.2
20260510141925 77 234 2.6 6.1 0.00 0.00 0.00 71 1016.2
20260510141424 77 264 1.7 5.2 0.00 0.00 0.00 72 1016.1
20260510141141 78 248 0.9 3.5 0.00 0.00 0.00 72 1015.8
20260510140424 77 232 0.9 3.5 0.00 0.00 0.00 75 1015.6
20260510135925 77 248 0.9 2.6 0.00 0.00 0.00 74 1015.6
20260510135426 75 150 0.0 1.7 0.00 0.00 0.00 76 1015.5
20260510134926 74 317 0.0 1.7 0.00 0.00 0.00 79 1015.5
20260510134423 73 317 0.0 1.7 0.00 0.00 0.00 78 1015.4
20260510133923 72 317 0.0 1.7 0.00 0.00 0.00 82 1015.5
20260510133424 71 317 0.0 0.9 0.00 0.00 0.00 83 1015.6
20260510132920 70 317 0.0 1.7 0.00 0.00 0.00 82 1015.5
20260510132419 70 317 0.9 2.6 0.00 0.00 0.00 83 1015.6
20260510131919 70 317 0.9 2.6 0.00 0.00 0.00 83 1015.6
20260510131420 69 294 0.9 1.7 0.00 0.00 0.00 84 1015.7
20260510130917 69 294 0.9 1.7 0.00 0.00 0.00 85 1015.6
20260510130417 68 294 0.9 1.7 0.00 0.00 0.00 85 1015.6
20260510130143 68 351 0.9 1.7 0.00 0.00 0.00 86 1015.6
20260510125417 67 246 1.7 2.6 0.00 0.00 0.00 87 1015.6
20260510124917 67 246 1.7 2.6 0.00 0.00 0.00 86 1015.6
20260510124418 66 246 1.7 2.6 0.00 0.00 0.00 86 1015.5
20260510123917 66 246 0.9 3.5 0.00 0.00 0.00 86 1015.4
20260510123418 66 246 0.9 3.5 0.00 0.00 0.00 86 1015.2
20260510122918 66 246 1.7 2.6 0.00 0.00 0.00 87 1015.2
20260510122638 66 246 0.9 2.6 0.00 0.00 0.00 87 1015.2
20260510121910 66 234 0.9 2.6 0.00 0.00 0.00 88 1015.1
20260510121624 65 264 0.9 2.6 0.00 0.00 0.00 90 1015.1
20260510120902 64 255 0.9 2.6 0.00 0.00 0.00 92 1015.0
20260510120857 65 217 0.9 2.6 0.00 0.00 0.00 90 1015.0
20260510120112 63 255 0.9 2.6 0.00 0.00 0.00 92 1015.1
20260510115353 62 255 0.9 2.6 0.00 0.00 0.00 92 1015.0
20260510115109 62 255 0.9 2.6 0.00 0.00 0.00 92 1015.0
20260510114827 61 255 0.0 2.6 0.00 0.00 0.00 92 1015.0
20260510113845 61 208 0.0 2.6 0.00 0.00 0.00 92 1014.9
20260510113829 61 208 0.9 2.6 0.00 0.00 0.00 92 1014.9
20260510112843 60 283 0.9 2.6 0.00 0.00 0.00 92 1014.7
20260510112342 60 257 0.9 2.6 0.00 0.00 0.00 92 1014.6
20260510111839 60 261 0.9 1.7 0.00 0.00 0.00 92 1014.5
20260510111424 60 202 0.9 1.7 0.00 0.00 0.00 92 1014.4
20260510110332 59 202 0.9 3.5 0.00 0.00 0.00 92 1014.3
20260510105837 59 198 0.9 3.5 0.00 0.00 0.00 92 1014.2
20260510105330 58 202 0.9 2.6 0.00 0.00 0.00 92 1014.1
20260510104827 57 213 0.0 1.7 0.00 0.00 0.00 92 1014.0
20260510104426 57 213 0.0 0.9 0.00 0.00 0.00 91 1013.8
20260510103325 56 213 0.0 0.9 0.00 0.00 0.00 91 1013.7
20260510102823 56 213 0.0 0.0 0.00 0.00 0.00 90 1013.7
20260510102323 55 213 0.0 0.0 0.00 0.00 0.00 90 1013.8
20260510101817 56 213 0.0 0.0 0.00 0.00 0.00 90 1013.7
20260510101803 56 213 0.0 0.0 0.00 0.00 0.00 90 1013.7
20260510101039 55 213 0.0 0.0 0.00 0.00 0.00 90 1013.7
20260510100322 55 213 0.0 0.0 0.00 0.00 0.00 90 1013.6
20260510095819 55 213 0.0 0.9 0.00 0.00 0.00 90 1013.5
20260510095534 55 213 0.0 0.9 0.00 0.00 0.00 90 1013.5
20260510094816 55 213 0.0 0.0 0.00 0.00 0.00 90 1013.5
20260510094316 55 213 0.0 0.0 0.00 0.00 0.00 90 1013.4
20260510093814 55 213 0.0 0.9 0.00 0.00 0.00 89 1013.4
20260510093313 55 213 0.0 0.9 0.00 0.00 0.00 89 1013.4
20260510092812 55 213 0.0 0.9 0.00 0.00 0.00 89 1013.3
20260510092544 55 213 0.0 0.0 0.00 0.00 0.00 89 1013.3
20260510091810 55 213 0.0 0.0 0.00 0.00 0.00 89 1013.2
20260510091257 55 213 0.0 0.0 0.00 0.00 0.00 89 1013.1
20260510090756 55 213 0.0 0.0 0.00 0.00 0.00 89 1013.1
20260510090257 55 213 0.0 0.9 0.00 0.00 0.00 89 1013.1
20260510090025 55 213 0.0 0.9 0.00 0.00 0.00 89 1013.1
20260510085258 55 213 0.0 0.0 0.00 0.00 0.00 89 1013.0
20260510084758 55 213 0.0 0.0 0.00 0.00 0.00 89 1012.9
20260510084256 55 213 0.0 0.9 0.00 0.00 0.00 89 1013.0
20260510083759 55 213 0.0 0.9 0.00 0.00 0.00 89 1013.1
20260510083300 55 213 0.0 0.9 0.00 0.00 0.00 89 1013.1
20260510082756 55 213 0.0 0.0 0.00 0.00 0.00 89 1013.0
20260510082258 55 213 0.0 0.0 0.00 0.00 0.00 89 1013.0
20260510081757 55 213 0.0 0.0 0.00 0.00 0.00 89 1012.9
20260510081521 55 213 0.0 0.0 0.00 0.00 0.00 88 1012.8
20260510080755 55 213 0.0 0.0 0.00 0.00 0.00 88 1012.7
20260510080256 55 213 0.0 0.0 0.00 0.00 0.00 88 1012.6
20260510080023 55 213 0.0 0.0 0.00 0.00 0.00 88 1012.7
20260510075257 55 213 0.0 0.0 0.00 0.00 0.00 88 1012.7
20260510074755 55 213 0.0 0.0 0.00 0.00 0.00 88 1012.6
20260510074255 55 213 0.0 0.0 0.00 0.00 0.00 88 1012.7
20260510073754 55 213 0.0 0.0 0.00 0.00 0.00 87 1012.6
20260510073252 55 213 0.0 0.0 0.00 0.00 0.00 87 1012.6
20260510073020 55 213 0.0 0.0 0.00 0.00 0.00 87 1012.6
20260510072253 55 213 0.0 0.0 0.00 0.00 0.00 87 1012.7
20260510071752 55 213 0.0 0.0 0.00 0.00 0.00 87 1012.7
20260510071252 55 213 0.0 0.0 0.00 0.00 0.00 87 1012.8
20260510070752 55 213 0.0 0.0 0.00 0.00 0.00 86 1012.7
20260510070514 55 213 0.0 0.0 0.00 0.00 0.00 86 1012.8
20260510065752 56 213 0.0 0.9 0.00 0.00 0.00 86 1012.8
20260510065251 56 213 0.0 0.9 0.00 0.00 0.00 86 1012.8
20260510064746 56 213 0.0 0.0 0.00 0.00 0.00 86 1012.8
20260510064512 56 213 0.0 0.9 0.00 0.00 0.00 86 1012.7
20260510063743 56 213 0.0 0.9 0.00 0.00 0.00 86 1012.7
20260510063237 56 213 0.0 0.9 0.00 0.00 0.00 86 1012.6
20260510062729 56 213 0.0 0.0 0.00 0.00 0.00 86 1012.6
20260510062222 56 213 0.0 0.9 0.00 0.00 0.00 85 1012.5
20260510061717 56 213 0.0 0.9 0.00 0.00 0.00 85 1012.4
20260510061210 56 213 0.0 0.9 0.00 0.00 0.00 85 1012.3
20260510060707 56 213 0.0 0.9 0.00 0.00 0.00 85 1012.3
20260510060208 56 213 0.0 0.9 0.00 0.00 0.00 85 1012.2
20260510055708 57 213 0.0 0.9 0.00 0.00 0.00 85 1012.3
20260510055205 57 213 0.0 0.9 0.00 0.00 0.00 85 1012.2
20260510054705 57 213 0.0 0.9 0.00 0.00 0.00 84 1012.3
20260510054203 57 213 0.0 0.9 0.00 0.00 0.00 84 1012.2
20260510053704 57 213 0.0 0.9 0.00 0.00 0.00 84 1012.2
20260510053200 57 213 0.0 0.0 0.00 0.00 0.00 84 1012.3
20260510052701 57 213 0.0 0.0 0.00 0.00 0.00 83 1012.3
20260510052201 57 213 0.0 0.9 0.00 0.00 0.00 83 1012.3
20260510051700 57 213 0.0 0.9 0.00 0.00 0.00 83 1012.3
20260510051200 57 213 0.0 0.0 0.00 0.00 0.00 83 1012.3
20260510050700 57 213 0.0 0.0 0.00 0.00 0.00 82 1012.2
20260510050201 58 213 0.0 0.0 0.00 0.00 0.00 82 1012.3
20260510045700 58 213 0.0 0.0 0.00 0.00 0.00 81 1012.2
20260510045159 58 213 0.0 0.0 0.00 0.00 0.00 81 1012.2
20260510044658 58 213 0.0 0.0 0.00 0.00 0.00 81 1012.2
20260510044159 58 213 0.0 0.0 0.00 0.00 0.00 81 1012.2
20260510043702 58 213 0.0 0.0 0.00 0.00 0.00 80 1012.1
20260510043424 59 213 0.0 0.0 0.00 0.00 0.00 80 1012.2
20260510042700 59 213 0.0 0.0 0.00 0.00 0.00 79 1012.3
20260510042158 59 213 0.0 0.0 0.00 0.00 0.00 79 1012.2
20260510041700 59 213 0.0 0.0 0.00 0.00 0.00 78 1012.3
20260510041159 59 213 0.0 0.0 0.00 0.00 0.00 77 1012.2
20260510040658 60 213 0.0 0.0 0.00 0.00 0.00 77 1012.3
20260510040158 60 213 0.0 0.0 0.00 0.00 0.00 77 1012.3
20260510035658 60 213 0.0 0.0 0.00 0.00 0.00 77 1012.3
20260510035200 60 213 0.0 0.0 0.00 0.00 0.00 76 1012.3
20260510034700 60 213 0.0 0.0 0.00 0.00 0.00 76 1012.3
20260510034200 60 213 0.0 0.9 0.00 0.00 0.00 76 1012.3
20260510033658 61 213 0.0 0.9 0.00 0.00 0.00 76 1012.4
20260510033155 61 213 0.0 0.9 0.00 0.00 0.00 75 1012.3
20260510032656 61 213 0.0 1.7 0.00 0.00 0.00 75 1012.3
20260510032155 62 213 0.0 1.7 0.00 0.00 0.00 74 1012.4
20260510031658 62 319 0.0 0.9 0.00 0.00 0.00 72 1012.3
20260510031158 63 319 0.0 0.9 0.00 0.00 0.00 72 1012.3
20260510030652 63 319 0.0 0.9 0.00 0.00 0.00 72 1012.3
20260510030152 63 319 0.0 0.9 0.00 0.00 0.00 72 1012.2
20260510025650 63 319 0.0 0.9 0.00 0.00 0.00 72 1012.2
20260510025414 64 319 0.0 0.9 0.00 0.00 0.00 71 1012.3
20260510025132 64 319 0.0 0.9 0.00 0.00 0.00 70 1012.2
20260510024412 64 319 0.0 0.0 0.00 0.00 0.00 68 1012.1
20260510023648 65 319 0.0 0.0 0.00 0.00 0.00 66 1012.1
20260510023146 65 319 0.0 0.0 0.00 0.00 0.00 65 1012.1
20260510022645 65 319 0.0 0.9 0.00 0.00 0.00 64 1012.0
20260510022145 66 319 0.0 0.9 0.00 0.00 0.00 65 1012.0
20260510021646 66 319 0.0 0.9 0.00 0.00 0.00 64 1011.9
20260510021151 67 319 0.0 0.0 0.00 0.00 0.00 64 1011.8
20260510020645 67 319 0.0 0.0 0.00 0.00 0.00 62 1011.7
20260510020144 67 319 0.0 0.0 0.00 0.00 0.00 62 1011.7
20260510015643 68 319 0.0 0.0 0.00 0.00 0.00 60 1011.6
20260510015402 69 319 0.0 0.0 0.00 0.00 0.00 58 1011.5
20260510014854 69 319 0.0 0.0 0.00 0.00 0.00 57 1011.5
20260510014125 70 319 0.0 0.0 0.00 0.00 0.00 56 1011.4
20260510013840 70 319 0.0 0.0 0.00 0.00 0.00 55 1011.4
20260510013113 71 319 0.0 0.0 0.00 0.00 0.00 55 1011.2
20260510012837 71 319 0.0 0.9 0.00 0.00 0.00 54 1011.2
20260510012110 72 319 0.0 0.9 0.00 0.00 0.00 53 1011.2
20260510011608 72 319 0.0 0.0 0.00 0.00 0.00 53 1011.1
20260510011106 73 319 0.0 0.0 0.00 0.00 0.00 52 1011.1
20260510010605 74 319 0.0 0.9 0.00 0.00 0.00 50 1011.1
20260510010105 75 319 0.0 0.9 0.00 0.00 0.00 49 1011.0
20260510005834 75 319 0.0 0.0 0.00 0.00 0.00 48 1010.9
20260510005105 76 319 0.0 0.9 0.00 0.00 0.00 48 1010.7
20260510004604 76 319 0.0 0.9 0.00 0.00 0.00 47 1010.7
20260510004106 76 40 0.0 0.9 0.00 0.00 0.00 45 1010.5
20260510003603 77 40 0.0 1.7 0.00 0.00 0.00 45 1010.5
20260510003101 77 40 0.9 1.7 0.00 0.00 0.00 43 1010.4
20260510002601 78 40 0.9 1.7 0.00 0.00 0.00 41 1010.4
20260510002101 79 40 0.0 1.7 0.00 0.00 0.00 38 1010.4
20260510001602 79 40 0.9 1.7 0.00 0.00 0.00 37 1010.3
20260510001102 79 40 0.9 2.6 0.00 0.00 0.00 36 1010.3
20260510000555 80 40 0.9 2.6 0.00 0.00 0.00 34 1010.2
20260510000049 80 40 0.9 1.7 0.00 0.00 0.00 35 1010.2
20260509235543 81 40 0.9 1.7 0.00 0.00 0.00 33 1010.1
20260509235040 81 40 0.9 1.7 0.00 0.00 0.00 33 1010.1
20260509234541 82 40 0.9 1.7 0.00 0.00 0.00 36 1010.0
20260509234039 81 40 0.9 2.6 0.00 0.00 0.00 31 1009.9
20260509233538 81 40 0.9 2.6 0.00 0.00 0.00 32 1009.9
20260509233307 81 40 0.9 2.6 0.00 0.00 0.00 31 1009.9
20260509232537 81 346 0.9 2.6 0.00 0.00 0.00 33 1009.9
20260509232036 82 96 0.9 2.6 0.00 0.00 0.00 32 1009.8
20260509231537 83 70 0.9 2.6 0.00 0.00 0.00 32 1009.9
20260509231034 83 80 0.0 2.6 0.00 0.00 0.00 31 1009.8
20260509230535 84 80 0.9 1.7 0.00 0.00 0.00 34 1009.8
20260509230309 82 80 0.9 1.7 0.00 0.00 0.00 34 1009.8
20260509225532 82 103 0.9 2.6 0.00 0.00 0.00 33 1009.7
20260509225033 81 103 0.9 2.6 0.00 0.00 0.00 34 1009.7
20260509224533 82 23 1.7 3.5 0.00 0.00 0.00 37 1009.7
20260509224032 81 88 1.7 5.2 0.00 0.00 0.00 33 1009.6
20260509223532 81 63 1.7 5.2 0.00 0.00 0.00 33 1009.7
20260509223033 82 92 1.7 3.5 0.00 0.00 0.00 35 1009.7
20260509222843 82 78 0.9 3.5 0.00 0.00 0.00 35 1009.7
20260509221524 82 96 0.9 3.5 0.00 0.00 0.00 34 1009.9
20260509221247 83 105 0.9 2.6 0.00 0.00 0.00 32 1009.9
20260509220524 83 114 0.9 2.6 0.00 0.00 0.00 36 1009.9
20260509220025 82 350 0.9 3.5 0.00 0.00 0.00 36 1009.9
20260509215523 82 61 1.7 3.5 0.00 0.00 0.00 34 1009.9
20260509215022 82 98 1.7 3.5 0.00 0.00 0.00 36 1009.9
20260509214523 81 78 1.7 5.2 0.00 0.00 0.00 34 1010.0
20260509214018 81 78 1.7 5.2 0.00 0.00 0.00 34 1010.0
20260509213519 83 71 1.7 5.2 0.00 0.00 0.00 35 1010.0
20260509213018 83 14 0.9 5.2 0.00 0.00 0.00 33 1010.0
20260509212736 83 19 0.9 2.6 0.00 0.00 0.00 35 1010.0
20260509212020 83 19 0.9 2.6 0.00 0.00 0.00 35 1010.0
20260509211746 82 27 1.7 4.3 0.00 0.00 0.00 36 1010.1
20260509211017 82 355 1.7 4.3 0.00 0.00 0.00 36 1010.1
20260509210516 83 68 0.9 3.5 0.00 0.00 0.00 35 1010.0
20260509210020 82 101 1.7 3.5 0.00 0.00 0.00 35 1010.1
20260509205513 83 95 0.9 3.5 0.00 0.00 0.00 35 1010.1
20260509205007 84 137 0.9 3.5 0.00 0.00 0.00 36 1010.1
20260509204724 83 207 0.9 4.3 0.00 0.00 0.00 37 1010.1
20260509204000 84 98 0.9 4.3 0.00 0.00 0.00 36 1010.0
20260509203457 84 167 1.7 3.5 0.00 0.00 0.00 36 1010.0
20260509202954 84 219 1.7 5.2 0.00 0.00 0.00 37 1010.1
20260509202454 84 206 1.7 5.2 0.00 0.00 0.00 34 1010.1
20260509202211 84 240 1.7 3.5 0.00 0.00 0.00 36 1010.1
20260509201457 84 34 1.7 3.5 0.00 0.00 0.00 42 1010.2
20260509201452 84 248 1.7 3.5 0.00 0.00 0.00 38 1010.1
20260509200943 83 355 1.7 3.5 0.00 0.00 0.00 40 1010.2
20260509195952 83 91 2.6 7.0 0.00 0.00 0.00 35 1010.3
20260509195453 83 267 1.7 7.0 0.00 0.00 0.00 40 1010.4
20260509194953 83 14 0.9 3.5 0.00 0.00 0.00 39 1010.4
20260509194451 84 0 1.7 3.5 0.00 0.00 0.00 38 1010.3
20260509193946 83 327 1.7 6.1 0.00 0.00 0.00 39 1010.4
20260509193445 83 15 2.6 8.7 0.00 0.00 0.00 35 1010.3
20260509192947 84 248 1.7 8.7 0.00 0.00 0.00 36 1010.4
20260509192705 83 250 1.7 4.3 0.00 0.00 0.00 43 1010.4
20260509192205 83 254 2.6 6.1 0.00 0.00 0.00 45 1010.4
20260509191443 83 257 1.7 6.1 0.00 0.00 0.00 39 1010.4
20260509191430 84 234 1.7 7.0 0.00 0.00 0.00 40 1010.4
20260509190445 84 322 1.7 7.0 0.00 0.00 0.00 45 1010.4
20260509185937 84 309 1.7 5.2 0.00 0.00 0.00 43 1010.5
20260509185657 84 267 0.9 3.5 0.00 0.00 0.00 42 1010.6
20260509184937 83 254 1.7 4.3 0.00 0.00 0.00 42 1010.5
20260509184440 82 209 1.7 4.3 0.00 0.00 0.00 45 1010.7
20260509183940 82 341 1.7 5.2 0.00 0.00 0.00 39 1010.7
20260509183439 82 336 2.6 7.0 0.00 0.00 0.00 44 1010.7
20260509182938 83 335 2.6 7.0 0.00 0.00 0.00 42 1010.7
20260509182440 82 22 1.7 3.5 0.00 0.00 0.00 47 1010.7
20260509182206 82 29 1.7 5.2 0.00 0.00 0.00 44 1010.7
20260509181436 82 338 1.7 5.2 0.00 0.00 0.00 43 1010.8
20260509180936 81 57 1.7 5.2 0.00 0.00 0.00 42 1010.8
20260509180436 82 30 1.7 5.2 0.00 0.00 0.00 40 1010.8
20260509175935 82 9 1.7 5.2 0.00 0.00 0.00 49 1010.8
20260509175437 81 267 1.7 5.2 0.00 0.00 0.00 45 1010.9
20260509174935 81 317 1.7 6.1 0.00 0.00 0.00 51 1010.9
20260509174434 80 294 1.7 6.1 0.00 0.00 0.00 53 1010.9
20260509174029 80 51 1.7 3.5 0.00 0.00 0.00 54 1010.9
20260509172934 80 103 1.7 4.3 0.00 0.00 0.00 50 1010.9
20260509172435 80 243 1.7 4.3 0.00 0.00 0.00 52 1010.8
20260509171928 81 84 2.6 6.1 0.00 0.00 0.00 52 1010.8
20260509171423 80 312 2.6 6.1 0.00 0.00 0.00 55 1010.9
20260509170916 80 5 2.6 7.0 0.00 0.00 0.00 54 1011.0
20260509170410 80 225 1.7 7.0 0.00 0.00 0.00 48 1011.0
20260509165905 80 161 1.7 6.1 0.00 0.00 0.00 49 1011.0
20260509165401 79 324 1.7 6.1 0.00 0.00 0.00 55 1011.1
20260509164902 79 278 2.6 7.0 0.00 0.00 0.00 52 1011.2
20260509164401 79 254 2.6 7.0 0.00 0.00 0.00 52 1011.2
20260509164131 80 221 2.6 7.0 0.00 0.00 0.00 50 1011.2
20260509163401 80 296 1.7 6.1 0.00 0.00 0.00 53 1011.1
20260509163120 80 9 1.7 4.3 0.00 0.00 0.00 53 1011.1
20260509162358 80 323 1.7 6.1 0.00 0.00 0.00 49 1011.0
20260509161857 80 248 1.7 6.1 0.00 0.00 0.00 56 1011.0
20260509161627 80 285 1.7 4.3 0.00 0.00 0.00 55 1010.9
20260509160858 79 286 1.7 6.1 0.00 0.00 0.00 56 1010.9
20260509160359 79 274 2.6 6.1 0.00 0.00 0.00 53 1010.9
20260509155857 79 328 1.7 6.1 0.00 0.00 0.00 52 1010.8
20260509155404 80 288 1.7 5.2 0.00 0.00 0.00 56 1010.8
20260509154903 80 246 1.7 6.1 0.00 0.00 0.00 51 1010.8
20260509154358 80 350 1.7 6.1 0.00 0.00 0.00 56 1010.6
20260509153955 79 329 1.7 5.2 0.00 0.00 0.00 57 1010.5